TimeAKST,TemperatureF,Dew PointF,Humidity,Sea Level PressureIn,VisibilityMPH,Wind Direction,Wind SpeedMPH,Gust SpeedMPH,PrecipitationIn,Events,Conditions,WindDirDegrees,DateUTC
12:16 AM,44.6,30.2,57,29.21,10.0,NE,28.8,39.1,N/A,,Overcast,50,2014-01-26 09:16:00
12:36 AM,44.6,32.0,61,29.21,10.0,NE,18.4,36.8,N/A,,Overcast,40,2014-01-26 09:36:00
12:56 AM,44.6,32.0,61,29.21,10.0,ENE,19.6,29.9,N/A,,Overcast,60,2014-01-26 09:56:00
1:16 AM,44.6,33.8,66,29.19,10.0,NE,12.7,29.9,N/A,,Overcast,40,2014-01-26 10:16:00
1:36 AM,44.6,33.8,66,29.18,10.0,ENE,11.5,24.2,N/A,,Overcast,70,2014-01-26 10:36:00
1:56 AM,46.4,33.8,62,29.17,10.0,ENE,11.5,24.2,N/A,,Overcast,60,2014-01-26 10:56:00
2:16 AM,44.6,33.8,66,29.16,10.0,East,18.4,27.6,N/A,,Overcast,90,2014-01-26 11:16:00
2:36 AM,44.6,33.8,66,29.15,10.0,East,24.2,35.7,N/A,,Overcast,100,2014-01-26 11:36:00
2:56 AM,44.6,33.8,66,29.13,10.0,East,32.2,39.1,N/A,,Overcast,100,2014-01-26 11:56:00
3:16 AM,44.6,33.8,66,29.15,10.0,East,24.2,31.1,N/A,,Overcast,90,2014-01-26 12:16:00
3:36 AM,44.6,33.8,66,29.14,10.0,ESE,31.1,38.0,N/A,,Mostly Cloudy,110,2014-01-26 12:36:00
3:56 AM,44.6,35.6,71,29.14,10.0,ESE,31.1,40.3,N/A,,Overcast,120,2014-01-26 12:56:00
4:16 AM,42.8,35.6,76,29.17,10.0,SE,27.6,36.8,N/A,,Overcast,130,2014-01-26 13:16:00
4:36 AM,42.8,35.6,76,29.17,10.0,SE,28.8,35.7,N/A,,Overcast,140,2014-01-26 13:36:00
4:56 AM,42.8,35.6,76,29.18,10.0,SE,23.0,28.8,N/A,,Mostly Cloudy,140,2014-01-26 13:56:00
5:16 AM,44.6,35.6,71,29.21,10.0,SE,25.3,35.7,N/A,,Scattered Clouds,140,2014-01-26 14:16:00
5:36 AM,44.6,35.6,71,29.23,10.0,SE,27.6,31.1,N/A,,Mostly Cloudy,140,2014-01-26 14:36:00
5:56 AM,44.6,35.6,71,29.23,10.0,SE,27.6,38.0,N/A,,Mostly Cloudy,140,2014-01-26 14:56:00
6:16 AM,44.6,35.6,71,29.24,10.0,SE,33.4,40.3,N/A,,Overcast,130,2014-01-26 15:16:00
6:36 AM,44.6,35.6,71,29.25,10.0,ESE,28.8,36.8,N/A,,Overcast,120,2014-01-26 15:36:00
6:56 AM,44.6,33.8,66,29.26,10.0,ESE,25.3,33.4,N/A,,Overcast,110,2014-01-26 15:56:00
7:16 AM,44.6,35.6,71,29.27,10.0,SE,20.7,31.1,N/A,,Mostly Cloudy,130,2014-01-26 16:16:00
7:36 AM,44.6,35.6,71,29.28,10.0,SE,24.2,32.2,N/A,,Overcast,130,2014-01-26 16:36:00
7:56 AM,44.6,35.6,71,29.28,10.0,SE,26.5,36.8,N/A,,Overcast,130,2014-01-26 16:56:00
8:16 AM,44.6,35.6,71,29.29,10.0,SE,24.2,36.8,N/A,,Overcast,130,2014-01-26 17:16:00
8:36 AM,44.6,35.6,71,29.30,10.0,SE,21.9,27.6,N/A,,Mostly Cloudy,130,2014-01-26 17:36:00
8:56 AM,44.6,35.6,71,29.31,10.0,SE,25.3,28.8,N/A,,Mostly Cloudy,130,2014-01-26 17:56:00
9:16 AM,44.6,35.6,71,29.30,10.0,SE,26.5,34.5,N/A,,Scattered Clouds,130,2014-01-26 18:16:00
9:36 AM,44.6,35.6,71,29.31,10.0,SE,23.0,34.5,N/A,,Scattered Clouds,130,2014-01-26 18:36:00
9:56 AM,44.6,33.8,66,29.33,10.0,SE,25.3,34.5,N/A,,Mostly Cloudy,130,2014-01-26 18:56:00
10:16 AM,44.6,33.8,66,29.33,10.0,SE,28.8,34.5,N/A,,Mostly Cloudy,130,2014-01-26 19:16:00
10:36 AM,-9999,-9999,N/A,29.34,10.0,SE,26.5,34.5,N/A,,Mostly Cloudy,130,2014-01-26 19:36:00
10:56 AM,-9999,-9999,N/A,29.33,10.0,SE,29.9,39.1,N/A,,Mostly Cloudy,140,2014-01-26 19:56:00
11:16 AM,-9999,-9999,N/A,29.32,10.0,SE,32.2,39.1,N/A,,Mostly Cloudy,140,2014-01-26 20:16:00
11:36 AM,-9999,-9999,N/A,29.31,10.0,SE,32.2,42.6,N/A,,Scattered Clouds,140,2014-01-26 20:36:00
11:56 AM,46.4,33.8,62,29.34,10.0,SE,27.6,36.8,N/A,,Clear,130,2014-01-26 20:56:00
12:16 PM,46.4,33.8,62,29.37,10.0,East,25.3,36.8,N/A,,Clear,100,2014-01-26 21:16:00
12:36 PM,46.4,33.8,62,29.38,10.0,East,29.9,35.7,N/A,,Scattered Clouds,90,2014-01-26 21:36:00
12:56 PM,-9999,-9999,N/A,29.37,10.0,ESE,29.9,39.1,N/A,,Scattered Clouds,110,2014-01-26 21:56:00
1:16 PM,-9999,-9999,N/A,29.34,10.0,ESE,33.4,39.1,N/A,,Partly Cloudy,120,2014-01-26 22:16:00
1:36 PM,-9999,-9999,N/A,29.33,10.0,SE,33.4,39.1,N/A,,Clear,130,2014-01-26 22:36:00
1:56 PM,46.4,33.8,62,29.34,10.0,SE,34.5,43.7,N/A,,Mostly Cloudy,130,2014-01-26 22:56:00
2:16 PM,46.4,33.8,62,29.35,10.0,SE,29.9,40.3,N/A,,Overcast,130,2014-01-26 23:16:00
2:36 PM,44.6,33.8,66,29.35,10.0,ESE,29.9,34.5,N/A,,Overcast,120,2014-01-26 23:36:00
2:56 PM,44.6,33.8,66,29.36,10.0,ESE,18.4,32.2,N/A,,Overcast,120,2014-01-26 23:56:00
3:16 PM,42.8,35.6,76,29.36,10.0,ESE,20.7,26.5,N/A,,Overcast,120,2014-01-27 00:16:00
3:36 PM,42.8,35.6,76,29.34,10.0,ESE,16.1,-,N/A,,Overcast,120,2014-01-27 00:36:00
3:56 PM,42.8,35.6,76,29.33,10.0,SE,16.1,-,N/A,,Overcast,130,2014-01-27 00:56:00
4:16 PM,42.8,35.6,76,29.33,10.0,ESE,10.4,-,N/A,,Overcast,110,2014-01-27 01:16:00
4:36 PM,44.6,35.6,71,29.32,10.0,ENE,17.3,27.6,N/A,,Overcast,70,2014-01-27 01:36:00
4:56 PM,44.6,35.6,71,29.32,10.0,East,21.9,35.7,N/A,,Overcast,80,2014-01-27 01:56:00
5:16 PM,46.4,35.6,66,29.31,10.0,NE,17.3,25.3,N/A,,Overcast,50,2014-01-27 02:16:00
5:36 PM,46.4,37.4,71,29.31,10.0,ENE,15.0,32.2,N/A,,Overcast,60,2014-01-27 02:36:00
5:56 PM,48.2,35.6,62,29.29,10.0,NE,17.3,32.2,N/A,,Overcast,50,2014-01-27 02:56:00
6:16 PM,51.8,35.6,54,29.28,10.0,NE,23.0,32.2,N/A,,Overcast,40,2014-01-27 03:16:00
6:36 PM,48.2,35.6,62,29.26,10.0,NE,24.2,34.5,N/A,,Overcast,40,2014-01-27 03:36:00
6:56 PM,50.0,35.6,58,29.27,10.0,NE,17.3,33.4,N/A,,Overcast,50,2014-01-27 03:56:00
7:16 PM,48.2,35.6,62,29.26,10.0,NE,19.6,31.1,N/A,,Overcast,40,2014-01-27 04:16:00
7:36 PM,48.2,37.4,66,29.25,10.0,NE,21.9,31.1,N/A,,Overcast,40,2014-01-27 04:36:00
7:56 PM,48.2,37.4,66,29.23,10.0,NNE,25.3,33.4,N/A,,Overcast,30,2014-01-27 04:56:00
8:16 PM,48.2,35.6,62,29.21,10.0,NE,28.8,32.2,N/A,,Overcast,40,2014-01-27 05:16:00
8:36 PM,48.2,37.4,66,29.20,10.0,NE,23.0,33.4,N/A,,Overcast,50,2014-01-27 05:36:00
8:56 PM,48.2,35.6,62,29.20,10.0,NE,25.3,35.7,N/A,,Overcast,50,2014-01-27 05:56:00
9:16 PM,50.0,35.6,58,29.20,10.0,ENE,26.5,41.4,N/A,,Overcast,60,2014-01-27 06:16:00
9:36 PM,48.2,35.6,62,29.19,10.0,ENE,21.9,32.2,N/A,,Mostly Cloudy,70,2014-01-27 06:36:00
9:56 PM,50.0,35.6,58,29.16,10.0,ENE,20.7,36.8,N/A,,Scattered Clouds,70,2014-01-27 06:56:00
10:16 PM,48.2,33.8,58,29.16,10.0,NE,21.9,33.4,N/A,,Mostly Cloudy,50,2014-01-27 07:16:00
10:36 PM,50.0,33.8,54,29.16,10.0,ENE,28.8,35.7,N/A,,Mostly Cloudy,60,2014-01-27 07:36:00
10:56 PM,48.2,33.8,58,29.16,10.0,ENE,20.7,29.9,N/A,,Overcast,60,2014-01-27 07:56:00
11:16 PM,48.2,35.6,62,29.17,10.0,ENE,21.9,29.9,N/A,,Overcast,60,2014-01-27 08:16:00
11:36 PM,48.2,35.6,62,29.17,10.0,ENE,15.0,20.7,N/A,,Overcast,70,2014-01-27 08:36:00
11:56 PM,48.2,35.6,62,29.18,10.0,ENE,8.1,-,N/A,,Overcast,60,2014-01-27 08:56:00